[[{"header":{"parameterUnit":"m.s-1","parameterCategory":2,"la1":30.2991,"la2":30.254,"lo1":-89.0895,"lo2":-89.0444,"dy":0.0017,"dx":0.0017,"nx":28,"ny":28,"refTime":"2023-10-22T09:00:00:Z","depth":"0","parameterNumber":2,"parameterNumberName":"U-component_of_CURRENTS"},"data":[0,0,0,0,0,0,0,0,0,0,0,0,0,0,0,0,0,0,0,0,0,0,0,0,0,0,0,0,0,0,0,0,0,0,0,0,0,0,0,0,0,0,0,0,0,0,0,0,0,0,0,0,0,0,0,0,0,0,0.1297,0.1297,0,0.1267,0.1267,0.1266,0.1234,0.1234,0.1234,0.1234,0.1218,0.1217,0.1217,0,0,0,0,0,0,0,0,0,0,0,0,0,0.138,0.1378,0.1297,0.1297,0.1297,0.1268,0.1267,0.1266,0.1234,0.1234,0.1234,0.1234,0.1218,0.1217,0.1217,0,0,0,0,0,0,0,0,0,0,0,0,0,0.1342,0.1377,0.1297,0.1281,0.128,0.1268,0.1267,0.1266,0.1234,0.1234,0.1234,0.1234,0.1218,0.1217,0.1217,0.1215,0,0,0.1215,0.1215,0,0,0,0,0,0,0,0,0.1344,0.1339,0.1283,0.1282,0.1281,0.1258,0.129,0.1251,0.1234,0.1247,0.1234,0.1234,0.1235,0.1233,0.1222,0.1214,0.1213,0.1215,0.1215,0.1214,0.1214,0,0,0,0,0,0,0,0.1347,0.134,0.1281,0.1284,0.1282,0.1294,0.1287,0.1282,0.1239,0.1246,0.1245,0.1248,0.1234,0.1222,0.1221,0.1213,0.1215,0.1214,0.1214,0.1214,0.1259,0.1261,0,0,0,0,0,0,0.1356,0.1342,0.1282,0.1281,0.1318,0.1293,0.1285,0.1262,0.1239,0.1236,0.1248,0.1247,0.1223,0.1222,0.122,0.1291,0.1214,0.1214,0.1213,0.1258,0.126,0.1261,0,0,0,0,0,0,0.1357,0.135,0.1283,0.1316,0.1309,0.1291,0.1266,0.1262,0.1256,0.1241,0.1238,0.1248,0.1223,0.1221,0.1233,0.1288,0.1213,0.1213,0.1256,0.1258,0.1261,0.1385,0,0,0,0,0,0,0.1359,0.135,0.1355,0.1316,0.1308,0.1288,0.1266,0.1261,0.126,0.1258,0.124,0.1238,0.1223,0.1235,0.1233,0.1285,0.1212,0.1254,0.1257,0.126,0.1379,0.1392,0.1402,0,0,0,0,0,0.1362,0.1371,0.1354,0.1349,0.1308,0.129,0.1286,0.1272,0.126,0.1264,0.1257,0.1238,0.1252,0.1235,0.1233,0.1287,0.1253,0.1256,0.126,0.1374,0.1389,0.1402,0,0,0,0,0,0,0.1427,0.1367,0.1349,0.1343,0.1323,0.1286,0.13,0.1278,0.1272,0.1277,0.1252,0.125,0.1292,0.126,0.1242,0.1306,0.1252,0.1255,0.134,0.1354,0.1365,0.1495,0.1212,0,0,0,0,0,0.1439,0.1413,0.1373,0.137,0.1364,0.133,0.1328,0.131,0.1295,0.1291,0.1275,0.1273,0.1303,0.1303,0.1312,0.1333,0.1423,0.1366,0.1378,0.1388,0.1491,0.1674,0.1715,0.1273,0.1273,0.1273,0,0,0.1467,0.143,0.142,0.1381,0.1365,0.1364,0.1327,0.1325,0.1343,0.1293,0.1315,0.1317,0.1319,0.1361,0.1375,0.1341,0.1547,0.1392,0.1401,0.1502,0.1683,0.1727,0.1766,0.1275,0.1275,0.1274,0,0,0.1512,0.1473,0.1474,0.145,0.1426,0.1404,0.1405,0.1369,0.1378,0.1381,0.1386,0.1452,0.1403,0.1482,0.1501,0.1585,0.1611,0.153,0.169,0.1863,0.1904,0.1941,0.2067,0.2115,0.1525,0.1526,0.1526,0,0.1567,0.1541,0.148,0.1475,0.1482,0.1423,0.145,0.1441,0.1417,0.1479,0.1401,0.1513,0.1499,0.1666,0.1689,0.1628,0.1698,0.1633,0.1888,0.1927,0.1963,0.2084,0.2135,0.1532,0.1531,0.1531,0.153,0,0.1597,0.159,0.1593,0.1559,0.1555,0.1565,0.1544,0.1565,0.155,0.157,0.1706,0.1714,0.181,0.1787,0.176,0.2005,0.1961,0.1893,0.1871,0.2017,0.2131,0.2183,0.1541,0.1539,0.1537,0.1535,0,0,0.1723,0.1636,0.1646,0.1652,0.1607,0.1615,0.1663,0.1736,0.1827,0.1823,0.1984,0.2057,0.2099,0.2134,0.2126,0.2268,0.2543,0.2189,0.2194,0.2348,0.2908,0.2881,0.2932,0.2504,0.2514,0.2522,0.287,0,0.1795,0.1797,0.1741,0.1783,0.1798,0.1773,0.1825,0.1882,0.1928,0.2052,0.2159,0.2276,0.2211,0.2273,0.2424,0.2499,0.2691,0.2456,0.2718,0.2728,0.2716,0.2998,0.2943,0.3251,0.292,0.2929,0.2935,0,0.1884,0.1864,0.1905,0.1913,0.1925,0.1942,0.2071,0.2111,0.2271,0.2324,0.25,0.2538,0.2778,0.2672,0.3006,0.284,0.2947,0.3002,0.3014,0.3014,0.2803,0.3058,0.3357,0.3226,0.3014,0.3008,0.3002,0,0.2023,0.2013,0.2051,0.2042,0.2025,0.2088,0.2111,0.2229,0.2301,0.2538,0.2614,0.2875,0.2981,0.3189,0.3262,0.3167,0.3596,0.3462,0.3577,0.357,0.3604,0.3585,0.3861,0.3827,0.3826,0.3825,0.3824,0,0.2137,0.2172,0.2117,0.2129,0.2211,0.2189,0.2324,0.2395,0.253,0.2641,0.2777,0.291,0.3117,0.3309,0.3412,0.3657,0.3735,0.3745,0.3725,0.3631,0.3611,0.3554,0.3431,0.3838,0.3835,0.3832,0.383,0,0.2263,0.2226,0.2262,0.2256,0.2264,0.2329,0.2368,0.2449,0.2581,0.2738,0.2815,0.3006,0.3265,0.3452,0.3774,0.3831,0.3981,0.4138,0.3987,0.3948,0.3911,0.3793,0.3975,0.3876,0.4387,0.4389,0.4391,0,0.2303,0.2336,0.2339,0.2335,0.2322,0.2385,0.2402,0.2491,0.2553,0.2763,0.283,0.3122,0.3299,0.3748,0.3974,0.4282,0.4097,0.4382,0.4247,0.4044,0.3898,0.3646,0.3528,0.4314,0.4316,0.4317,0.4317,0,0.236,0.2373,0.2367,0.2368,0.2377,0.2388,0.2421,0.248,0.2583,0.2713,0.2875,0.3047,0.3479,0.3763,0.4154,0.4322,0.4167,0.4412,0.4292,0.4017,0.3685,0.3527,0.3882,0.4327,0.4326,0.4325,0.4325,0.4324,0.2369,0.2379,0.2356,0.2358,0.2355,0.2341,0.234,0.2394,0.2489,0.2633,0.2826,0.3061,0.3514,0.4063,0.4195,0.4402,0.4263,0.4357,0.4279,0.4078,0.387,0.4234,0.4569,0.4569,0.4569,0.457,0.457,0,0.2318,0.2313,0.2317,0.228,0.2235,0.2261,0.2281,0.2268,0.2334,0.2567,0.2726,0.32,0.3572,0.3939,0.4333,0.4274,0.4093,0.4174,0.3829,0.3756,0.4221,0.4101,0.4238,0.4238,0.4238,0.4239,0.4239,0.4239,0.2273,0.2239,0.2238,0.2134,0.2106,0.202,0.2011,0.2051,0.2186,0.243,0.2689,0.2943,0.3439,0.3932,0.4102,0.4077,0.3746,0.3627,0.3523,0.3841,0.3849,0.3856,0.3719,0.3774,0.3774,0.2963,0.2956,0.2952]},{"header":{"parameterUnit":"m.s-1","parameterCategory":2,"la1":30.2991,"la2":30.254,"lo1":-89.0895,"lo2":-89.0444,"dy":0.0017,"dx":0.0017,"nx":28,"ny":28,"refTime":"2023-10-22T09:00:00:Z","depth":"0","parameterNumber":3,"parameterNumberName":"V-component_of_CURRENTS"},"data":[0,0,0,0,0,0,0,0,0,0,0,0,0,0,0,0,0,0,0,0,0,0,0,0,0,0,0,0,0,0,0,0,0,0,0,0,0,0,0,0,0,0,0,0,0,0,0,0,0,0,0,0,0,0,0,0,0,0,0.0106,0.0105,0,0.004,0.004,0.0039,0.0015,0.0015,0.0014,0.0014,-0.002,-0.0021,-0.0021,0,0,0,0,0,0,0,0,0,0,0,0,0,0.0176,0.0176,0.0106,0.0105,0.0103,0.004,0.004,0.0039,0.0015,0.0015,0.0014,0.0014,-0.0019,-0.002,-0.0021,0,0,0,0,0,0,0,0,0,0,0,0,0,0.0135,0.0175,0.0106,0.0081,0.0078,0.0041,0.004,0.0039,0.0015,0.0015,0.0014,0.0014,-0.0019,-0.002,-0.0022,-0.0026,0,0,-0.0025,-0.0026,0,0,0,0,0,0,0,0,0.0137,0.0133,0.0086,0.0083,0.0079,0.0033,0.0052,0.0018,0.0015,0.0042,0.0014,0.0014,-0.0001,-0.0004,-0.0012,-0.0028,-0.0029,-0.0025,-0.0026,-0.0027,-0.0027,0,0,0,0,0,0,0,0.014,0.0135,0.0083,0.0085,0.0081,0.0062,0.0057,0.0045,0.0025,0.004,0.0037,0.0025,-0.0002,-0.0011,-0.0013,-0.003,-0.0025,-0.0026,-0.0027,-0.0028,0.0006,0.0008,0,0,0,0,0,0,0.0144,0.0138,0.0085,0.0081,0.0105,0.0061,0.0055,0.005,0.0025,0.0019,0.0025,0.0024,-0.0008,-0.0011,-0.0014,0.0044,-0.0027,-0.0028,-0.0028,0.0004,0.0006,0.0008,0,0,0,0,0,0,0.0146,0.014,0.0088,0.0105,0.0097,0.006,0.0055,0.0049,0.0041,0.0012,0.0008,0.0023,-0.0009,-0.0012,-0.0011,0.004,-0.0028,-0.0029,0.0002,0.0005,0.0007,0.0119,0,0,0,0,0,0,0.0148,0.0141,0.0138,0.0105,0.0096,0.0068,0.0054,0.0048,0.0032,0.003,0.0009,0.0005,-0.0009,-0.0009,-0.0012,0.0037,-0.003,0.0,0.0004,0.0006,0.0113,0.0125,0.0135,0,0,0,0,0,0.0151,0.0142,0.0138,0.0131,0.0093,0.0067,0.0061,0.0036,0.0033,0.003,0.0025,0.0006,0.0009,-0.0009,-0.0013,0.0037,-0.0001,0.0003,0.0006,0.0108,0.0122,0.0135,0,0,0,0,0,0,0.0174,0.0138,0.0133,0.0115,0.0096,0.0062,0.005,0.004,0.0032,0.0034,0.0016,0.0012,0.0038,0.0014,-0.0005,0.0056,0.0005,0.0008,0.0084,0.0097,0.0108,0.0181,-0.0031,0,0,0,0,0,0.0177,0.0165,0.0132,0.0123,0.0111,0.0085,0.0071,0.0058,0.0044,0.004,0.003,0.003,0.0049,0.0053,0.0051,0.0073,0.0071,0.0106,0.0117,0.0126,0.0183,0.0208,0.0227,0.002,0.002,0.002,0,0,0.0184,0.0164,0.0156,0.0127,0.011,0.0113,0.0077,0.0059,0.0091,0.0039,0.0074,0.0061,0.0062,0.0098,0.0108,0.0085,0.0176,0.0131,0.0139,0.0192,0.0214,0.0234,0.0253,0.0023,0.0022,0.0022,0,0,0.0193,0.0175,0.0166,0.0158,0.0131,0.0125,0.0123,0.0097,0.0113,0.013,0.0124,0.0157,0.0142,0.0187,0.0203,0.0273,0.023,0.0248,0.0369,0.0391,0.0409,0.0425,0.0419,0.0434,0.0257,0.0258,0.0258,0,0.02,0.0201,0.0162,0.0161,0.0179,0.0139,0.0165,0.017,0.0157,0.0209,0.0154,0.0233,0.021,0.0329,0.0348,0.0308,0.0287,0.0318,0.0408,0.0424,0.0439,0.0429,0.0444,0.0263,0.0263,0.0262,0.0262,0,0.021,0.0219,0.0216,0.0221,0.0232,0.0242,0.0253,0.0282,0.0292,0.0314,0.0411,0.0394,0.046,0.0444,0.0414,0.0527,0.0466,0.0414,0.038,0.0467,0.0449,0.0463,0.0272,0.027,0.0268,0.0266,0,0,0.0209,0.0222,0.0225,0.0272,0.0276,0.03,0.0369,0.0447,0.0542,0.0532,0.067,0.0692,0.0695,0.0716,0.069,0.0706,0.076,0.0605,0.0603,0.061,0.0782,0.072,0.0728,0.0703,0.0707,0.071,0.0717,0,0.0238,0.0277,0.0282,0.0367,0.0403,0.0437,0.0525,0.0598,0.0651,0.0762,0.08,0.0887,0.0795,0.0835,0.0846,0.079,0.0805,0.0762,0.069,0.0689,0.0634,0.0747,0.0726,0.0731,0.073,0.0732,0.0734,0,0.0255,0.0291,0.0366,0.0498,0.0523,0.0578,0.076,0.0831,0.0971,0.1022,0.112,0.1124,0.1205,0.1082,0.1075,0.1038,0.0941,0.0872,0.0869,0.0801,0.0657,0.065,0.0755,0.0526,0.0754,0.0753,0.0751,0,0.03,0.0372,0.0455,0.0485,0.0599,0.069,0.0775,0.0918,0.1032,0.1194,0.1279,0.1359,0.1397,0.1327,0.1172,0.1127,0.1117,0.1034,0.09,0.0891,0.0865,0.0849,0.0764,0.1044,0.1044,0.1044,0.1044,0,0.0348,0.0423,0.0487,0.0534,0.0696,0.0759,0.0954,0.1056,0.1223,0.1378,0.1414,0.1529,0.1449,0.1417,0.1267,0.1134,0.1192,0.0977,0.092,0.0896,0.0883,0.0672,0.0534,0.1044,0.1044,0.1044,0.1044,0,0.0398,0.0422,0.0532,0.0656,0.0713,0.0834,0.1043,0.1185,0.1316,0.1519,0.1576,0.1667,0.1643,0.1526,0.1409,0.125,0.0994,0.1049,0.1013,0.0954,0.0632,0.0502,0.0425,0.0285,0.0956,0.0955,0.0954,0,0.043,0.0474,0.0607,0.0684,0.0746,0.092,0.1052,0.1224,0.1374,0.1592,0.1699,0.1747,0.1805,0.1626,0.1386,0.1178,0.0955,0.0979,0.0918,0.0666,0.0477,0.0403,0.0284,0.0905,0.0904,0.0903,0.0902,0,0.0493,0.0522,0.0606,0.0748,0.0881,0.1058,0.125,0.1381,0.1585,0.1731,0.1898,0.1957,0.1829,0.1647,0.1357,0.1184,0.0806,0.0952,0.0721,0.0488,0.0379,0.0197,0.0812,0.0894,0.0895,0.0895,0.0896,0.0896,0.053,0.0598,0.0678,0.0833,0.098,0.1174,0.1325,0.151,0.1726,0.1961,0.2015,0.214,0.189,0.1532,0.1215,0.07,0.0716,0.0543,0.0422,0.0384,0.0216,0.0804,0.0791,0.0792,0.0792,0.0792,0.0792,0,0.0562,0.0635,0.0766,0.094,0.11,0.1183,0.1443,0.1586,0.18,0.2027,0.2169,0.2222,0.1772,0.1353,0.0686,0.0254,0.0088,0.0026,-0.0088,-0.0176,0.0385,0.0345,0.0199,0.0199,0.0199,0.02,0.02,0.02,0.0576,0.0678,0.0751,0.0994,0.1133,0.1353,0.1497,0.1687,0.1885,0.2174,0.2359,0.25,0.2304,0.0952,-0.0026,-0.0265,-0.0592,-0.0623,-0.0813,-0.0456,-0.0417,-0.038,-0.0448,-0.0759,-0.076,-0.1323,-0.1329,-0.1333]}],[{"header":{"parameterUnit":"m.s-1","parameterCategory":2,"la1":30.2991,"la2":30.254,"lo1":-89.0895,"lo2":-89.0444,"dy":0.0017,"dx":0.0017,"nx":28,"ny":28,"refTime":"2023-10-22T09:00:00:Z","depth":"2","parameterNumber":2,"parameterNumberName":"U-component_of_CURRENTS"},"data":[0,0,0,0,0,0,0,0,0,0,0,0,0,0,0,0,0,0,0,0,0,0,0,0,0,0,0,0,0,0,0,0,0,0,0,0,0,0,0,0,0,0,0,0,0,0,0,0,0,0,0,0,0,0,0,0,0,0,0.2251,0.2252,0,0.2293,0.2293,0.2293,0.2306,0.2306,0.2306,0.2306,0.2319,0.232,0.232,0,0,0,0,0,0,0,0,0,0,0,0,0,0.2169,0.217,0.2251,0.2252,0.2252,0.2293,0.2293,0.2293,0.2306,0.2306,0.2306,0.2306,0.2319,0.232,0.232,0,0,0,0,0,0,0,0,0,0,0,0,0,0.2204,0.217,0.2251,0.2265,0.2267,0.2292,0.2293,0.2293,0.2306,0.2306,0.2306,0.2306,0.2319,0.232,0.232,0.2322,0,0,0.2322,0.2322,0,0,0,0,0,0,0,0,0.2202,0.2207,0.2263,0.2265,0.2267,0.2296,0.2269,0.2303,0.2306,0.2288,0.2306,0.2306,0.2311,0.2312,0.2316,0.2323,0.2324,0.2322,0.2322,0.2322,0.2322,0,0,0,0,0,0,0,0.22,0.2205,0.2265,0.2263,0.2266,0.2265,0.227,0.2275,0.2296,0.229,0.2291,0.23,0.2311,0.2316,0.2317,0.2324,0.2322,0.2322,0.2323,0.2323,0.2352,0.2353,0,0,0,0,0,0,0.2201,0.2203,0.2263,0.2266,0.2237,0.2267,0.2273,0.2285,0.2297,0.23,0.23,0.2301,0.2315,0.2316,0.2317,0.2336,0.2322,0.2323,0.2323,0.2352,0.2352,0.2353,0,0,0,0,0,0,0.2199,0.2206,0.2262,0.2237,0.2245,0.2269,0.2282,0.2285,0.2295,0.2306,0.2307,0.2307,0.2315,0.2317,0.2325,0.2336,0.2323,0.2323,0.2351,0.2352,0.2353,0.2363,0,0,0,0,0,0,0.2196,0.2205,0.221,0.2238,0.2246,0.2275,0.2282,0.2286,0.2301,0.2302,0.2312,0.2313,0.2315,0.2324,0.2325,0.2336,0.2324,0.2351,0.2352,0.2352,0.2362,0.2364,0.2366,0,0,0,0,0,0.2193,0.2192,0.2211,0.2218,0.2254,0.2276,0.2279,0.2295,0.2302,0.2304,0.2313,0.2313,0.2331,0.2325,0.2326,0.2337,0.235,0.2351,0.2352,0.2361,0.2364,0.2366,0,0,0,0,0,0,0.2149,0.2194,0.2215,0.2226,0.2253,0.2279,0.2281,0.2297,0.2307,0.2308,0.2316,0.2318,0.2329,0.2332,0.2325,0.2349,0.2342,0.2343,0.2348,0.235,0.2352,0.2355,0.2324,0,0,0,0,0,0.2147,0.2163,0.2205,0.2213,0.2228,0.2259,0.2269,0.2285,0.23,0.2305,0.2314,0.2324,0.2334,0.2341,0.2346,0.2358,0.2396,0.2368,0.237,0.2371,0.2375,0.243,0.2438,0.2356,0.2356,0.2356,0,0,0.2131,0.2159,0.2166,0.2206,0.2228,0.2247,0.2264,0.2282,0.2298,0.2304,0.2319,0.2328,0.2338,0.2351,0.2357,0.2356,0.2422,0.2373,0.2374,0.2377,0.2432,0.2441,0.2448,0.2357,0.2357,0.2357,0,0,0.2105,0.2135,0.2143,0.217,0.2212,0.2234,0.2242,0.2277,0.2291,0.2312,0.2321,0.2338,0.2351,0.2365,0.2373,0.2388,0.2427,0.2391,0.2405,0.246,0.2467,0.2474,0.2568,0.2583,0.2395,0.2395,0.2395,0,0.208,0.2108,0.2145,0.2164,0.2189,0.2229,0.2247,0.2266,0.2298,0.2321,0.2316,0.2358,0.236,0.239,0.2393,0.2393,0.2444,0.2395,0.2463,0.247,0.2477,0.2571,0.2588,0.2396,0.2396,0.2396,0.2396,0,0.2066,0.2096,0.2101,0.2148,0.2175,0.2195,0.2241,0.2265,0.2292,0.2323,0.236,0.2369,0.2404,0.2401,0.2399,0.2448,0.2478,0.2457,0.2459,0.2486,0.2584,0.2601,0.2397,0.2397,0.2396,0.2396,0,0,0.1985,0.2075,0.2078,0.2114,0.2174,0.2197,0.2231,0.2284,0.2324,0.2347,0.2404,0.2407,0.2434,0.2444,0.2451,0.2483,0.2578,0.249,0.2492,0.2586,0.274,0.2625,0.2633,0.2571,0.2573,0.2574,0.2802,0,0.1963,0.2012,0.2058,0.2102,0.2135,0.2195,0.2231,0.2287,0.2336,0.2398,0.2428,0.2477,0.2446,0.2477,0.2503,0.2562,0.2618,0.2521,0.2696,0.2702,0.2597,0.2645,0.2379,0.2545,0.2819,0.2821,0.2823,0,0.1926,0.1976,0.2024,0.2118,0.2137,0.2168,0.2257,0.2296,0.2392,0.2437,0.2494,0.2534,0.2602,0.2563,0.2688,0.2633,0.269,0.2724,0.2734,0.2629,0.2615,0.2554,0.2566,0.2852,0.285,0.2848,0.2846,0,0.1866,0.1945,0.1993,0.2022,0.2127,0.2163,0.2217,0.2311,0.2359,0.2478,0.2543,0.262,0.2682,0.2748,0.2823,0.2775,0.2968,0.2918,0.2877,0.2874,0.2679,0.2651,0.301,0.301,0.3009,0.3009,0.3008,0,0.1823,0.1858,0.1976,0.2002,0.2059,0.2146,0.2214,0.2281,0.2392,0.2479,0.2565,0.2645,0.2725,0.2838,0.2887,0.2948,0.3036,0.2896,0.2914,0.2677,0.2648,0.2922,0.2909,0.3017,0.3016,0.3014,0.3012,0,0.1751,0.1824,0.1883,0.2001,0.2033,0.2078,0.2196,0.2261,0.2375,0.2496,0.2545,0.2693,0.2844,0.2939,0.3078,0.3024,0.3102,0.3104,0.2837,0.2814,0.2965,0.295,0.308,0.3078,0.3076,0.3074,0.3073,0,0.1729,0.1754,0.1865,0.191,0.1965,0.2047,0.2114,0.2229,0.2315,0.2524,0.2593,0.2768,0.288,0.3044,0.2989,0.3067,0.3151,0.2844,0.2657,0.2963,0.2969,0.2957,0.2945,0.245,0.2443,0.2438,0.2434,0,0.1687,0.1723,0.1779,0.1868,0.194,0.201,0.2123,0.2169,0.2342,0.2449,0.2617,0.2719,0.2848,0.2763,0.2818,0.2808,0.2794,0.2734,0.3159,0.2435,0.2375,0.2378,0.2386,0.2387,0.2392,0.2395,0.2398,0.24,0.1657,0.1679,0.1759,0.183,0.1908,0.1979,0.2012,0.2143,0.2237,0.2336,0.2483,0.2521,0.2535,0.2436,0.2427,0.2385,0.2542,0.2412,0.2426,0.2447,0.2295,0.2229,0.2191,0.2194,0.2197,0.22,0.2202,0,0.1631,0.167,0.173,0.1808,0.1862,0.1929,0.2029,0.2041,0.2125,0.216,0.2217,0.1985,0.1958,0.2047,0.1887,0.1871,0.1832,0.1827,0.176,0.1806,0.1847,0.1662,0.1394,0.1392,0.139,0.1388,0,0,0.1624,0.1658,0.1681,0.1742,0.1808,0.1852,0.1889,0.1899,0.1909,0.1776,0.1702,0.1739,0.1901,0.1571,0.1555,0.1474,0.1626,0.1411,0.205,0.2013,0.2052,0.2167,0.1932,0,0,0,0,0]},{"header":{"parameterUnit":"m.s-1","parameterCategory":2,"la1":30.2991,"la2":30.254,"lo1":-89.0895,"lo2":-89.0444,"dy":0.0017,"dx":0.0017,"nx":28,"ny":28,"refTime":"2023-10-22T09:00:00:Z","depth":"2","parameterNumber":3,"parameterNumberName":"V-component_of_CURRENTS"},"data":[0,0,0,0,0,0,0,0,0,0,0,0,0,0,0,0,0,0,0,0,0,0,0,0,0,0,0,0,0,0,0,0,0,0,0,0,0,0,0,0,0,0,0,0,0,0,0,0,0,0,0,0,0,0,0,0,0,0,-0.052,-0.0521,0,-0.0593,-0.0594,-0.0594,-0.062,-0.062,-0.062,-0.062,-0.0663,-0.0664,-0.0665,0,0,0,0,0,0,0,0,0,0,0,0,0,-0.0407,-0.0409,-0.052,-0.0521,-0.0522,-0.0593,-0.0594,-0.0594,-0.062,-0.062,-0.062,-0.0619,-0.0663,-0.0664,-0.0666,0,0,0,0,0,0,0,0,0,0,0,0,0,-0.0464,-0.041,-0.0519,-0.0544,-0.0548,-0.0593,-0.0594,-0.0595,-0.062,-0.062,-0.062,-0.0619,-0.0662,-0.0664,-0.0666,-0.068,0,0,-0.0671,-0.0672,0,0,0,0,0,0,0,0,-0.0461,-0.0468,-0.054,-0.0543,-0.0546,-0.0599,-0.057,-0.0622,-0.062,-0.059,-0.0619,-0.0619,-0.064,-0.0644,-0.0656,-0.0682,-0.0684,-0.0672,-0.0673,-0.0674,-0.0674,0,0,0,0,0,0,0,-0.0457,-0.0465,-0.0546,-0.0541,-0.0545,-0.0554,-0.0562,-0.058,-0.0613,-0.0593,-0.0595,-0.0607,-0.0642,-0.0654,-0.0657,-0.0685,-0.0672,-0.0673,-0.0674,-0.0675,-0.072,-0.072,0,0,0,0,0,0,-0.0452,-0.0461,-0.0544,-0.0549,-0.0505,-0.0557,-0.0565,-0.058,-0.0614,-0.0619,-0.0607,-0.0608,-0.0651,-0.0654,-0.0658,-0.0669,-0.0674,-0.0675,-0.0676,-0.0719,-0.072,-0.072,0,0,0,0,0,0,-0.0449,-0.0459,-0.0541,-0.0508,-0.0519,-0.0559,-0.0576,-0.0582,-0.0593,-0.0625,-0.063,-0.0611,-0.0651,-0.0656,-0.0675,-0.0671,-0.0676,-0.0678,-0.0719,-0.0719,-0.072,-0.0696,0,0,0,0,0,0,-0.0446,-0.0458,-0.0464,-0.0508,-0.0521,-0.0564,-0.0577,-0.0584,-0.0601,-0.0603,-0.063,-0.0634,-0.0651,-0.0673,-0.0677,-0.0674,-0.0679,-0.0719,-0.0719,-0.072,-0.0697,-0.0696,-0.0694,0,0,0,0,0,-0.0442,-0.0453,-0.0464,-0.0474,-0.053,-0.0564,-0.0572,-0.0598,-0.0601,-0.0606,-0.0626,-0.0633,-0.0676,-0.0674,-0.068,-0.0677,-0.0719,-0.0719,-0.072,-0.0698,-0.0696,-0.0694,0,0,0,0,0,0,-0.0407,-0.0458,-0.0471,-0.0497,-0.0526,-0.0569,-0.0579,-0.0595,-0.0615,-0.0614,-0.0639,-0.0644,-0.0662,-0.0673,-0.067,-0.069,-0.0697,-0.0698,-0.0679,-0.0677,-0.0676,-0.0645,-0.0681,0,0,0,0,0,-0.0403,-0.0424,-0.047,-0.0488,-0.0502,-0.0538,-0.0554,-0.0572,-0.0599,-0.0607,-0.0628,-0.0647,-0.0668,-0.0674,-0.0696,-0.0706,-0.0705,-0.0706,-0.0705,-0.0704,-0.0683,-0.0687,-0.0683,-0.072,-0.072,-0.072,0,0,-0.0395,-0.0425,-0.0437,-0.0482,-0.0506,-0.0523,-0.0547,-0.057,-0.0578,-0.0609,-0.0622,-0.0647,-0.0671,-0.0687,-0.0694,-0.0693,-0.0695,-0.0704,-0.0703,-0.0682,-0.0686,-0.0682,-0.0679,-0.072,-0.072,-0.072,0,0,-0.0388,-0.0415,-0.0429,-0.0451,-0.0489,-0.051,-0.0514,-0.0554,-0.0565,-0.059,-0.061,-0.0629,-0.0664,-0.0675,-0.0687,-0.0689,-0.0693,-0.0698,-0.066,-0.0665,-0.0661,-0.0658,-0.0657,-0.0654,-0.0691,-0.0691,-0.0691,0,-0.0374,-0.0399,-0.0436,-0.0452,-0.0463,-0.0501,-0.0507,-0.0528,-0.0567,-0.0566,-0.0589,-0.0625,-0.0656,-0.0657,-0.0663,-0.0685,-0.0683,-0.0665,-0.0661,-0.0658,-0.0655,-0.0655,-0.0652,-0.069,-0.069,-0.069,-0.069,0,-0.0379,-0.0393,-0.0401,-0.0431,-0.0448,-0.0459,-0.0492,-0.0502,-0.0523,-0.0538,-0.055,-0.0593,-0.0605,-0.0627,-0.065,-0.064,-0.0644,-0.0665,-0.0662,-0.065,-0.0651,-0.0648,-0.0688,-0.0688,-0.0689,-0.0689,0,0,-0.035,-0.0395,-0.0394,-0.0392,-0.0433,-0.0439,-0.0454,-0.0465,-0.0444,-0.0495,-0.0469,-0.053,-0.0539,-0.0552,-0.058,-0.0588,-0.0587,-0.0612,-0.0612,-0.0603,-0.0586,-0.0594,-0.0592,-0.0604,-0.0604,-0.0603,-0.0597,0,-0.0335,-0.0348,-0.0379,-0.0371,-0.0372,-0.0402,-0.04,-0.0412,-0.0424,-0.0407,-0.045,-0.0441,-0.0514,-0.0504,-0.0532,-0.0562,-0.0576,-0.0586,-0.0604,-0.0604,-0.0607,-0.0588,-0.0576,-0.0569,-0.0594,-0.0593,-0.0593,0,-0.0318,-0.0328,-0.0323,-0.0319,-0.0319,-0.032,-0.0298,-0.03,-0.0297,-0.0298,-0.0308,-0.0332,-0.0349,-0.041,-0.0467,-0.0467,-0.0522,-0.0557,-0.0558,-0.0565,-0.0606,-0.0585,-0.0564,-0.0588,-0.0589,-0.0589,-0.0589,0,-0.0257,-0.0276,-0.0262,-0.0267,-0.0278,-0.0269,-0.0268,-0.0262,-0.0224,-0.021,-0.0166,-0.0218,-0.0207,-0.0293,-0.0382,-0.0419,-0.043,-0.0496,-0.0556,-0.0557,-0.0549,-0.055,-0.0532,-0.0532,-0.0532,-0.0532,-0.0532,0,-0.0213,-0.0196,-0.023,-0.0219,-0.0171,-0.0206,-0.0142,-0.0141,-0.0105,-0.002,-0.0092,-0.003,-0.0174,-0.0204,-0.0323,-0.0412,-0.039,-0.0532,-0.055,-0.0542,-0.0543,-0.0561,-0.0565,-0.0532,-0.0532,-0.0532,-0.0532,0,-0.013,-0.0163,-0.0138,-0.0149,-0.0139,-0.01,-0.0053,0.001,0.0022,0.0135,0.0155,0.0129,0.0089,-0.0049,-0.0163,-0.0309,-0.0408,-0.0446,-0.0423,-0.044,-0.0554,-0.0557,-0.0531,-0.0532,-0.0532,-0.0532,-0.0532,0,-0.0085,-0.0068,-0.0064,-0.0028,-0.0026,0.0021,0.0079,0.0085,0.0165,0.0249,0.0331,0.0313,0.0345,0.0161,-0.0099,-0.0297,-0.0337,-0.0433,-0.0521,-0.0531,-0.0552,-0.0554,-0.0556,-0.0504,-0.0504,-0.0504,-0.0504,0,0.002,0.0013,0.0039,0.0102,0.0156,0.0228,0.03,0.0378,0.0426,0.052,0.0645,0.0673,0.0481,0.0265,-0.0039,-0.0185,-0.0411,-0.0438,-0.0427,-0.051,-0.0506,-0.0526,-0.0529,-0.0502,-0.0503,-0.0503,-0.0503,-0.0503,0.0116,0.0157,0.0185,0.0255,0.0325,0.0436,0.0519,0.0624,0.0763,0.0889,0.0869,0.0882,0.0574,0.0177,-0.0062,-0.0353,-0.038,-0.0511,-0.0511,-0.0512,-0.0513,-0.051,-0.0507,-0.0507,-0.0508,-0.0508,-0.0508,0,0.024,0.0272,0.0344,0.0423,0.053,0.0528,0.0681,0.0791,0.0984,0.1023,0.1099,0.082,0.0566,0.0253,-0.0193,-0.0456,-0.0476,-0.0512,-0.0506,-0.0506,-0.0507,-0.0508,-0.0501,-0.0501,-0.0501,-0.0501,0,0,0.0306,0.0393,0.0416,0.0592,0.0658,0.0805,0.0897,0.1076,0.1143,0.1193,0.1123,0.0994,0.0606,0.0276,-0.0065,-0.0279,-0.032,-0.0305,-0.0292,-0.0246,-0.0242,-0.0496,-0.0498,0,0,0,0,0]}],[{"header":{"parameterUnit":"m.s-1","parameterCategory":2,"la1":30.2991,"la2":30.254,"lo1":-89.0895,"lo2":-89.0444,"dy":0.0017,"dx":0.0017,"nx":28,"ny":28,"refTime":"2023-10-22T09:00:00:Z","depth":"4","parameterNumber":2,"parameterNumberName":"U-component_of_CURRENTS"},"data":[0,0,0,0,0,0,0,0,0,0,0,0,0,0,0,0,0,0,0,0,0,0,0,0,0,0,0,0,0,0,0,0,0,0,0,0,0,0,0,0,0,0,0,0,0,0,0,0,0,0,0,0,0,0,0,0,0,0,0.0676,0.0677,0,0.0699,0.0699,0.0699,0.0686,0.0686,0.0686,0.0685,0.0784,0.0787,0.079,0,0,0,0,0,0,0,0,0,0,0,0,0,0.0612,0.0613,0.0676,0.0677,0.0677,0.0699,0.0699,0.0699,0.0686,0.0686,0.0686,0.0685,0.0783,0.0786,0.079,0,0,0,0,0,0,0,0,0,0,0,0,0,0.0633,0.0613,0.0676,0.0677,0.0678,0.0699,0.0699,0.0699,0.0686,0.0686,0.0685,0.0685,0.0782,0.0786,0.079,0.0821,0,0,0.0803,0.0805,0,0,0,0,0,0,0,0,0.0632,0.0635,0.0676,0.0677,0.0678,0.0694,0.0713,0.0745,0.0686,0.0677,0.0685,0.0685,0.0765,0.077,0.0766,0.0825,0.083,0.0803,0.0806,0.0808,0.0809,0,0,0,0,0,0,0,0.063,0.0634,0.068,0.0677,0.0679,0.0675,0.0677,0.0718,0.0719,0.0678,0.0679,0.069,0.0765,0.0762,0.0769,0.0831,0.0803,0.0807,0.081,0.0811,0.0972,0.0973,0,0,0,0,0,0,0.0639,0.0632,0.0679,0.0681,0.066,0.0676,0.0679,0.0685,0.0717,0.0723,0.069,0.0689,0.0755,0.0764,0.0773,0.0858,0.0808,0.0812,0.0814,0.097,0.0972,0.0974,0,0,0,0,0,0,0.0637,0.0643,0.0678,0.0662,0.0666,0.0678,0.0685,0.0686,0.0707,0.0726,0.0732,0.0714,0.0756,0.0767,0.0814,0.086,0.0813,0.0817,0.0968,0.0971,0.0973,0.0999,0,0,0,0,0,0,0.0635,0.0642,0.0657,0.0662,0.0668,0.0697,0.0686,0.0686,0.0715,0.0715,0.075,0.0756,0.0756,0.0807,0.0818,0.0865,0.082,0.0966,0.0969,0.0972,0.0996,0.1002,0.1007,0,0,0,0,0,0.0633,0.0637,0.0658,0.0664,0.0686,0.0698,0.07,0.0704,0.0717,0.0723,0.0745,0.0756,0.0836,0.0811,0.0824,0.0873,0.0964,0.0968,0.0972,0.0993,0.1001,0.1007,0,0,0,0,0,0,0.0614,0.0637,0.0659,0.0672,0.0695,0.0698,0.0709,0.0724,0.0745,0.0764,0.0772,0.078,0.084,0.0855,0.0828,0.093,0.0907,0.0913,0.0919,0.0927,0.0932,0.0962,0.0824,0,0,0,0,0,0.0623,0.0637,0.0662,0.0679,0.0692,0.0714,0.0726,0.0743,0.0761,0.0771,0.0804,0.084,0.0864,0.0892,0.0921,0.0979,0.0976,0.1022,0.1028,0.1033,0.1066,0.1076,0.1086,0.0987,0.0987,0.0987,0,0,0.061,0.0641,0.064,0.0678,0.0697,0.0717,0.0719,0.0754,0.0781,0.0784,0.0842,0.0868,0.0883,0.0934,0.0966,0.0955,0.1054,0.1038,0.1041,0.1073,0.1081,0.1091,0.1099,0.099,0.0989,0.0989,0,0,0.0601,0.0634,0.0642,0.0671,0.0727,0.0742,0.0762,0.0802,0.0827,0.0882,0.089,0.0943,0.0992,0.1012,0.1022,0.1087,0.1081,0.1106,0.1167,0.1175,0.1183,0.119,0.1167,0.1172,0.1112,0.1112,0.1112,0,0.0598,0.0624,0.0646,0.0679,0.0711,0.0756,0.0784,0.0809,0.0868,0.0909,0.0908,0.1002,0.1027,0.1075,0.1103,0.1103,0.1095,0.113,0.1181,0.1188,0.1195,0.117,0.1175,0.1114,0.1114,0.1114,0.1114,0,0.0597,0.0633,0.0646,0.0702,0.073,0.0772,0.0815,0.0872,0.0924,0.0961,0.1046,0.1072,0.1129,0.1148,0.115,0.1224,0.1195,0.1178,0.1157,0.1206,0.1177,0.1181,0.1117,0.1116,0.1115,0.1115,0,0,0.0545,0.0631,0.0637,0.0678,0.0763,0.0779,0.0847,0.0916,0.0965,0.1042,0.1106,0.1173,0.1217,0.1235,0.1251,0.1282,0.1317,0.127,0.127,0.1237,0.1317,0.1252,0.125,0.1303,0.1305,0.1307,0.1264,0,0.055,0.0619,0.0657,0.0713,0.0749,0.0823,0.0874,0.0951,0.1011,0.1086,0.1152,0.122,0.1233,0.1278,0.1308,0.1323,0.1338,0.1329,0.1286,0.1285,0.1212,0.1257,0.1313,0.1268,0.1269,0.127,0.127,0,0.0537,0.0592,0.0658,0.0749,0.0769,0.0811,0.0917,0.0973,0.1083,0.1142,0.1227,0.127,0.1358,0.135,0.139,0.1383,0.1373,0.1368,0.1365,0.1311,0.1231,0.1219,0.1278,0.1278,0.1277,0.1277,0.1276,0,0.0496,0.0586,0.0649,0.0682,0.0784,0.0838,0.0904,0.1008,0.1073,0.1198,0.1256,0.1332,0.139,0.14,0.142,0.141,0.1437,0.1397,0.1317,0.1309,0.1365,0.1358,0.1423,0.1423,0.1423,0.1423,0.1423,0,0.0493,0.0533,0.0643,0.0669,0.0748,0.083,0.0917,0.1,0.1119,0.1195,0.1292,0.1338,0.1415,0.1437,0.1429,0.1393,0.1432,0.1349,0.131,0.1372,0.1367,0.1365,0.1359,0.1422,0.1422,0.1422,0.1422,0,0.0442,0.0518,0.0576,0.0687,0.0731,0.0789,0.0933,0.0995,0.1116,0.1215,0.1272,0.1369,0.14,0.1431,0.1446,0.1397,0.1372,0.1344,0.1407,0.1368,0.1226,0.1222,0.1235,0.1233,0.1231,0.1229,0.1228,0,0.0432,0.0458,0.0568,0.061,0.0669,0.0773,0.0854,0.0995,0.1054,0.1207,0.1239,0.1329,0.1378,0.1326,0.1363,0.1332,0.1321,0.1291,0.1281,0.1255,0.1215,0.1214,0.1213,0.1225,0.1224,0.1224,0.1223,0,0.0383,0.0423,0.0462,0.056,0.0641,0.0714,0.0828,0.0869,0.1028,0.1147,0.1201,0.1239,0.1262,0.1267,0.1274,0.1244,0.1307,0.127,0.1273,0.1264,0.1242,0.1204,0.1205,0.1216,0.1217,0.1218,0.1218,0,0.0328,0.0348,0.041,0.0487,0.0583,0.0633,0.0698,0.0786,0.0869,0.1058,0.1061,0.1151,0.1244,0.1218,0.1209,0.1202,0.1173,0.1131,0.1141,0.1149,0.1146,0.1107,0.1025,0,0,0,0,0,0.0293,0.0305,0.035,0.0423,0.0512,0.0568,0.0676,0.0741,0.09,0.0922,0.0999,0.1029,0.1062,0.1086,0.1057,0.1134,0.1151,0.1093,0.1101,0.1179,0.1187,0.1195,0,0,0,0,0,0,0.026,0.0293,0.0315,0.0354,0.0404,0.0486,0.0546,0.064,0.065,0.0819,0.0829,0.0972,0.0992,0.1072,0.104,0.1051,0.1034,0.1161,0.1159,0.1175,0.1182,0.1188,0.1199,0,0,0,0,0]},{"header":{"parameterUnit":"m.s-1","parameterCategory":2,"la1":30.2991,"la2":30.254,"lo1":-89.0895,"lo2":-89.0444,"dy":0.0017,"dx":0.0017,"nx":28,"ny":28,"refTime":"2023-10-22T09:00:00:Z","depth":"4","parameterNumber":3,"parameterNumberName":"V-component_of_CURRENTS"},"data":[0,0,0,0,0,0,0,0,0,0,0,0,0,0,0,0,0,0,0,0,0,0,0,0,0,0,0,0,0,0,0,0,0,0,0,0,0,0,0,0,0,0,0,0,0,0,0,0,0,0,0,0,0,0,0,0,0,0,0.0175,0.0174,0,0.0148,0.0148,0.0148,0.0139,0.0139,0.0139,0.0139,0.0035,0.0032,0.0029,0,0,0,0,0,0,0,0,0,0,0,0,0,0.0143,0.0144,0.0175,0.0174,0.0174,0.0148,0.0148,0.0147,0.0139,0.0139,0.0139,0.0139,0.0036,0.0033,0.0029,0,0,0,0,0,0,0,0,0,0,0,0,0,0.0141,0.0145,0.0175,0.0167,0.0166,0.0148,0.0148,0.0147,0.0139,0.0139,0.0139,0.0139,0.0037,0.0033,0.0029,-0.0003,0,0,0.0015,0.0013,0,0,0,0,0,0,0,0,0.0141,0.0142,0.0168,0.0167,0.0166,0.0147,0.0099,0.0093,0.0138,0.0148,0.0139,0.0139,0.0066,0.0059,0.0054,-0.0008,-0.0012,0.0015,0.0012,0.001,0.0009,0,0,0,0,0,0,0,0.0141,0.0142,0.0164,0.0168,0.0167,0.0139,0.014,0.0098,0.0104,0.0148,0.0147,0.0145,0.0065,0.0058,0.0051,-0.0014,0.0015,0.0011,0.0009,0.0007,-0.0076,-0.0075,0,0,0,0,0,0,0.0149,0.0143,0.0164,0.0163,0.0154,0.014,0.0141,0.0153,0.0106,0.01,0.0145,0.0144,0.0066,0.0056,0.0047,0.0032,0.0011,0.0006,0.0004,-0.0076,-0.0076,-0.0075,0,0,0,0,0,0,0.0149,0.0152,0.0166,0.0152,0.0152,0.0141,0.0154,0.0152,0.0148,0.0105,0.0097,0.0143,0.0065,0.0053,0.0024,0.0027,0.0004,0.0,-0.0077,-0.0076,-0.0075,-0.0015,0,0,0,0,0,0,0.0149,0.0153,0.016,0.0153,0.0153,0.0166,0.0154,0.0152,0.0146,0.0146,0.0101,0.0092,0.0065,0.0031,0.002,0.0021,-0.0003,-0.0077,-0.0076,-0.0075,-0.0017,-0.0012,-0.0008,0,0,0,0,0,0.0148,0.017,0.0161,0.0163,0.0166,0.0167,0.0164,0.0156,0.0146,0.0151,0.0123,0.0093,0.0028,0.0028,0.0014,0.0014,-0.0077,-0.0076,-0.0076,-0.002,-0.0013,-0.0008,0,0,0,0,0,0,0.0162,0.0171,0.0161,0.0185,0.0177,0.0166,0.0173,0.0157,0.0139,0.0137,0.0093,0.0083,0.0058,0.0028,0.0028,-0.0006,-0.0029,-0.003,0.0019,0.0024,0.0029,0.0016,-0.0007,0,0,0,0,0,0.0167,0.0188,0.018,0.0197,0.0199,0.0181,0.0178,0.017,0.0154,0.0147,0.0114,0.008,0.0051,0.0032,0.0002,-0.0024,-0.0069,-0.003,-0.0026,-0.0021,-0.004,-0.0098,-0.0101,-0.0072,-0.0072,-0.0072,0,0,0.0181,0.0184,0.0198,0.0201,0.0198,0.02,0.0182,0.0186,0.0183,0.0135,0.0123,0.0092,0.0048,0.003,0.0016,0.0005,-0.0048,-0.002,-0.0016,-0.0038,-0.0098,-0.0101,-0.0103,-0.0071,-0.0071,-0.0071,0,0,0.0213,0.022,0.0243,0.0239,0.0233,0.022,0.0222,0.0208,0.0202,0.0182,0.0152,0.0121,0.0076,0.0048,0.0027,0.0034,-0.0021,0.0031,0.0041,-0.0014,-0.0018,-0.0021,-0.006,-0.0068,0.0034,0.0034,0.0034,0,0.0222,0.0248,0.0247,0.0257,0.0256,0.0231,0.0241,0.0231,0.0206,0.019,0.0187,0.0113,0.0082,0.0045,0.0055,0.0042,0.0006,0.0025,-0.0009,-0.0014,-0.0019,-0.0058,-0.0067,0.0037,0.0036,0.0036,0.0036,0,0.0264,0.0278,0.0294,0.0298,0.0294,0.0304,0.0286,0.0275,0.0255,0.0231,0.0193,0.0152,0.0103,0.0098,0.0077,0.0033,0.0018,0.0004,-0.0024,-0.0018,-0.0059,-0.007,0.0041,0.004,0.0039,0.0038,0,0,0.0297,0.0319,0.0323,0.0323,0.0316,0.0315,0.0312,0.0291,0.0274,0.0245,0.0214,0.0172,0.0137,0.011,0.008,0.0035,-0.0014,0.0009,0.0004,-0.0031,-0.013,-0.0114,-0.0124,-0.0035,-0.0037,-0.0038,-0.0136,0,0.0323,0.0356,0.0355,0.0368,0.0378,0.0353,0.0351,0.0323,0.0292,0.0256,0.0205,0.0169,0.0148,0.0126,0.0076,0.0001,-0.0044,0.0014,-0.0131,-0.0136,-0.0124,-0.0137,-0.0045,-0.0145,-0.0147,-0.0149,-0.015,0,0.0353,0.0368,0.04,0.0394,0.0397,0.04,0.0371,0.0364,0.031,0.0284,0.0229,0.0182,0.0113,0.0098,-0.0035,0.0003,-0.0063,-0.0117,-0.0122,-0.0145,-0.0141,-0.0159,-0.0171,-0.0169,-0.0168,-0.0166,-0.0165,0,0.0365,0.0389,0.0415,0.0418,0.0417,0.0419,0.0413,0.0374,0.0362,0.0298,0.027,0.0179,0.0131,0.0031,-0.0074,-0.0062,-0.0225,-0.022,-0.0268,-0.0266,-0.0278,-0.0274,-0.0322,-0.0322,-0.0322,-0.0322,-0.0321,0,0.0381,0.0395,0.0428,0.0439,0.0455,0.0446,0.0446,0.042,0.0385,0.0364,0.0289,0.024,0.0108,0.0006,-0.0087,-0.0212,-0.0236,-0.0282,-0.03,-0.0245,-0.0236,-0.0285,-0.0279,-0.0325,-0.0324,-0.0324,-0.0323,0,0.038,0.0407,0.0432,0.0456,0.0464,0.0475,0.0482,0.0476,0.0442,0.0408,0.039,0.0271,0.0136,0.0008,-0.0164,-0.0221,-0.0343,-0.0379,-0.0309,-0.0319,-0.0343,-0.0333,-0.0446,-0.0446,-0.0447,-0.0447,-0.0447,0,0.0379,0.0401,0.045,0.0469,0.0483,0.0506,0.0521,0.0507,0.0498,0.0425,0.0403,0.0272,0.0184,-0.0048,-0.0182,-0.0361,-0.0376,-0.0428,-0.0392,-0.0355,-0.0361,-0.035,-0.034,-0.0448,-0.0448,-0.0448,-0.0448,0,0.0368,0.0401,0.042,0.0476,0.0506,0.0525,0.0543,0.0544,0.0522,0.0503,0.0403,0.0281,0.0125,-0.0051,-0.0191,-0.0315,-0.039,-0.0432,-0.0432,-0.0399,-0.0358,-0.0362,-0.0351,-0.045,-0.0449,-0.0449,-0.0449,0,0.0353,0.0374,0.042,0.0455,0.0498,0.0518,0.0535,0.0523,0.0512,0.0456,0.0422,0.026,0.0168,-0.0029,-0.0162,-0.0282,-0.0303,-0.0318,-0.0324,-0.0324,-0.0253,-0.0182,-0.0249,0,0,0,0,0,0.0337,0.0358,0.0394,0.0432,0.0478,0.0502,0.053,0.0543,0.0546,0.0489,0.0457,0.0318,0.0109,0.0002,-0.0117,-0.0173,-0.0328,-0.0314,-0.035,-0.0457,-0.0455,-0.0391,0,0,0,0,0,0,0.0322,0.0357,0.038,0.0401,0.0431,0.0472,0.0494,0.05,0.0463,0.0455,0.0336,0.0306,0.0089,0.0175,-0.0118,-0.0156,-0.0188,-0.0408,-0.041,-0.0458,-0.0456,-0.0455,-0.0388,0,0,0,0,0]}]]